Location: Unspecified
(0.0000°N, 0.0000°E)
Time: 03:03:46
(UTC+00:00)

CZ-7A R/B - Visible Passes

Search period start: 12 October 2024 00:00
Search period end: 22 October 2024 00:00
Orbit: 133 x 29874 km, 14.7° (Epoch: 17 September)

Date Brightness Start Highest point End Pass type
(mag) Time Alt. Az. Time Alt. Az. Time Alt. Az.
13 Oct ? 21:24:25 10° W 21:27:04 16° W 21:27:04 16° W visible
14 Oct ? 19:41:03 10° WNW 20:07:25 75° NW 20:07:25 75° NW visible
15 Oct ? 04:02:24 20° SW 04:09:26 50° SSE 10:07:15 10° ENE visible
15 Oct ? 12:33:53 10° W 18:37:14 68° N 18:43:35 18° E visible
16 Oct ? 02:37:08 29° SSE 02:37:27 29° SSE 02:58:11 10° E visible
18 Oct ? 21:34:30 10° W 21:34:57 11° W 21:34:57 11° W visible
19 Oct ? 19:22:57 10° WNW 19:53:33 88° NNE 19:53:55 82° E visible
20 Oct ? 03:41:37 25° SW 03:47:07 48° SSE 09:23:14 10° ENE visible
20 Oct ? 11:55:38 10° W 17:59:29 70° N 18:08:33 10° E visible
21 Oct ? 01:55:34 19° SE 01:55:34 19° SE 02:03:11 10° ESE visible
